Date String (YYYY-MM-DD hh:mm:ss) UTC,Instrument flags,Ambient pressure (hPa),Sample flow (lpm),Bypass flow (lpm),Sample temperature (°C),Ambient temperature (°C),ASC tube jacket temperature (°C),LED temperature (°C),Box temperature (°C),Sample RH (%),Span deviation,Mass concentration (μg/m³),Mass concentration (μg/m³),Mass concentration (μg/m³)
DateTimeUTC,F1_M11,P_M11,Q1_M11,Q2_M11,T1_M11,T2_M11,T3_M11,T4_M11,T5_M11,U1_M11,ZSPAN_M11,X0_M11,X2_M11,X1_M11
2021-10-09 20:00:00,,0820.2,5.00,0.00,29.6,28.9,00.0,38.7,31.3,11.6,0000.0,0005.03,0001.47,0000.88
2021-10-09 20:01:00,,0820.3,5.00,0.00,29.6,28.9,00.0,38.7,31.3,11.4,0000.0,0004.79,0001.51,0000.90
2021-10-09 20:02:00,,0820.4,5.01,0.00,29.7,28.9,00.0,38.7,31.4,11.1,0000.0,0005.76,0001.54,0000.91
2021-10-09 20:03:00,,0820.4,4.99,0.00,29.7,28.9,00.0,38.7,31.4,11.2,0000.0,0005.91,0001.57,0000.92
2021-10-09 20:04:00,,0820.4,5.01,0.00,29.7,28.9,00.0,38.7,31.4,11.3,0000.0,0006.08,0001.59,0000.92
2021-10-09 20:05:00,,0820.5,5.00,0.00,29.7,28.9,00.0,38.8,31.4,11.3,0000.0,0006.66,0001.61,0000.93
2021-10-09 20:06:00,,0820.6,4.99,0.00,29.7,28.9,00.0,38.8,31.4,11.4,0000.0,0006.71,0001.59,0000.94
2021-10-09 20:07:00,,0820.4,5.00,0.00,29.7,29.0,00.0,38.8,31.4,11.4,0000.0,0005.44,0001.57,0000.95
2021-10-09 20:08:00,,0820.6,5.01,0.00,29.7,29.0,00.0,38.8,31.4,12.1,0000.0,0005.41,0001.59,0000.96
2021-10-09 20:09:00,,0820.6,5.00,0.00,29.7,29.0,00.0,38.8,31.5,13.6,0000.0,0005.30,0001.55,0000.96
2021-10-09 20:10:00,,0820.6,5.01,0.00,29.8,29.0,00.0,38.8,31.5,13.9,0000.0,0005.14,0001.49,0000.95
2021-10-09 20:11:00,,0820.6,5.00,0.00,29.8,29.0,00.0,38.8,31.5,13.8,0000.0,0005.18,0001.49,0000.95
2021-10-09 20:12:00,,0820.5,4.99,0.00,29.8,29.0,00.0,38.8,31.5,14.2,0000.0,0005.04,0001.45,0000.94
2021-10-09 20:13:00,,0820.6,4.99,0.00,29.8,29.0,00.0,38.8,31.5,14.3,0000.0,0004.15,0001.38,0000.91
2021-10-09 20:14:00,,0820.5,5.01,0.00,29.8,29.1,00.0,38.9,31.6,14.2,0000.0,0003.99,0001.36,0000.90
2021-10-09 20:15:00,,0820.3,5.00,0.00,29.8,29.1,00.0,38.9,31.6,14.2,0000.0,0004.41,0001.32,0000.88
2021-10-09 20:16:00,,0820.3,5.00,0.00,29.9,29.1,00.0,38.9,31.7,14.1,0000.0,0003.91,0001.25,0000.86
2021-10-09 20:17:00,,0820.3,5.00,0.00,29.9,29.1,00.0,38.9,31.7,13.9,0000.0,0002.93,0001.24,0000.84
2021-10-09 20:18:00,,0820.3,5.01,0.00,29.9,29.2,00.0,38.9,31.7,13.7,0000.0,0003.14,0001.27,0000.84
2021-10-09 20:19:00,,0820.3,4.99,0.00,29.9,29.2,00.0,38.9,31.7,13.8,0000.0,0003.73,0001.29,0000.82
2021-10-09 20:20:00,,0820.2,5.00,0.00,29.9,29.2,00.0,38.9,31.7,14.0,0000.0,0003.84,0001.30,0000.81
2021-10-09 20:21:00,,0820.2,5.01,0.00,29.9,29.2,00.0,39.0,31.7,14.0,0000.0,0004.01,0001.34,0000.81
2021-10-09 20:22:00,,0820.1,4.99,0.00,29.9,29.2,00.0,39.0,31.7,13.9,0000.0,0004.04,0001.32,0000.80
2021-10-09 20:23:00,,0820.1,4.99,0.00,29.9,29.2,00.0,39.0,31.8,13.9,0000.0,0003.94,0001.29,0000.81
2021-10-09 20:24:00,,0820.2,5.00,0.00,30.0,29.2,00.0,39.0,31.7,14.0,0000.0,0003.96,0001.32,0000.82
2021-10-09 20:25:00,,0820.3,5.00,0.00,29.9,29.2,00.0,39.0,31.7,13.9,0000.0,0003.96,0001.35,0000.85
2021-10-09 20:26:00,,0820.3,4.99,0.00,29.9,29.2,00.0,39.0,31.7,14.0,0000.0,0003.37,0001.35,0000.86
2021-10-09 20:27:00,,0820.3,5.01,0.00,29.9,29.2,00.0,39.0,31.7,13.9,0000.0,0003.34,0001.38,0000.87
2021-10-09 20:28:00,,0820.4,5.01,0.00,29.9,29.2,00.0,39.0,31.7,13.9,0000.0,0003.25,0001.36,0000.87
2021-10-09 20:29:00,,0820.3,5.01,0.00,29.9,29.1,00.0,39.0,31.7,14.0,0000.0,0003.21,0001.37,0000.87
2021-10-09 20:30:00,,0820.3,5.00,0.00,29.9,29.2,00.0,39.0,31.7,14.0,0000.0,0002.58,0001.31,0000.89
2021-10-09 20:31:00,,0820.3,4.98,0.00,29.9,29.2,00.0,39.0,31.7,14.1,0000.0,0002.37,0001.30,0000.89
2021-10-09 20:32:00,,0820.2,5.01,0.00,29.9,29.2,00.0,39.0,31.7,14.2,0000.0,0002.51,0001.35,0000.89
2021-10-09 20:33:00,,0820.2,4.98,0.00,29.9,29.2,00.0,39.0,31.7,14.1,0000.0,0002.38,0001.35,0000.90
2021-10-09 20:34:00,,0820.2,5.00,0.00,30.0,29.1,00.0,39.1,31.7,14.1,0000.0,0002.48,0001.36,0000.90
2021-10-09 20:35:00,,0820.2,5.01,0.00,30.0,29.2,00.0,39.1,31.7,14.1,0000.0,0002.98,0001.48,0000.91
2021-10-09 20:36:00,,0820.2,5.02,0.00,30.0,29.2,00.0,39.1,31.7,14.0,0000.0,0003.11,0001.48,0000.91
2021-10-09 20:37:00,,0820.2,4.99,0.00,30.0,29.2,00.0,39.1,31.7,13.6,0000.0,0004.26,0001.49,0000.90
2021-10-09 20:38:00,,0820.3,4.99,0.00,29.9,29.2,00.0,39.1,31.7,13.5,0000.0,0004.56,0001.59,0000.91
2021-10-09 20:39:00,,0820.4,5.00,0.00,29.9,29.1,00.0,39.1,31.7,13.5,0000.0,0004.62,0001.63,0000.91
2021-10-09 20:40:00,,0820.3,5.00,0.00,29.9,29.1,00.0,39.1,31.6,13.7,0000.0,0004.64,0001.63,0000.90
2021-10-09 20:41:00,,0820.3,4.99,0.00,29.9,29.1,00.0,39.1,31.7,13.8,0000.0,0004.74,0001.67,0000.89
2021-10-09 20:42:00,,0820.3,5.00,0.00,29.9,29.1,00.0,39.1,31.6,13.7,0000.0,0004.74,0001.67,0000.89
2021-10-09 20:43:00,,0820.2,5.00,0.00,29.9,29.1,00.0,39.1,31.7,13.8,0000.0,0004.58,0001.65,0000.90
2021-10-09 20:44:00,,0820.2,4.99,0.00,29.9,29.1,00.0,39.1,31.7,13.7,0000.0,0004.88,0001.70,0000.89
2021-10-09 20:45:00,,0820.1,5.01,0.00,29.9,29.1,00.0,39.1,31.7,13.7,0000.0,0005.31,0001.76,0000.88
2021-10-09 20:46:00,,0820.1,5.00,0.00,29.9,29.1,00.0,39.1,31.7,13.7,0000.0,0006.02,0001.79,0000.87
2021-10-09 20:47:00,,0820.1,4.99,0.00,29.9,29.0,00.0,39.1,31.7,13.6,0000.0,0007.45,0001.84,0000.85
2021-10-09 20:48:00,,0820.2,5.01,0.00,29.9,29.0,00.0,39.1,31.7,13.8,0000.0,0007.97,0001.93,0000.84
2021-10-09 20:49:00,,0820.2,5.00,0.00,29.9,29.0,00.0,39.1,31.7,13.8,0000.0,0008.12,0002.00,0000.84
2021-10-09 20:50:00,,0820.3,5.00,0.00,29.9,29.0,00.0,39.1,31.7,13.9,0000.0,0008.13,0001.96,0000.82
2021-10-09 20:51:00,,0820.3,5.00,0.00,29.9,29.0,00.0,39.0,31.6,13.9,0000.0,0009.12,0002.06,0000.81
2021-10-09 20:52:00,,0820.5,5.00,0.00,29.9,29.0,00.0,39.0,31.6,14.0,0000.0,0009.83,0002.12,0000.81
2021-10-09 20:53:00,,0820.6,5.00,0.00,29.9,29.0,00.0,39.0,31.6,14.1,0000.0,0010.06,0002.16,0000.79
2021-10-09 20:54:00,,0820.7,4.99,0.00,29.9,29.0,00.0,39.0,31.6,14.3,0000.0,0010.16,0002.19,0000.77
2021-10-09 20:55:00,,0820.7,5.02,0.00,29.9,29.0,00.0,39.0,31.7,14.3,0000.0,0010.11,0002.13,0000.75
2021-10-09 20:56:00,,0820.7,4.99,0.00,29.9,29.0,00.0,39.0,31.7,14.2,0000.0,0010.14,0002.07,0000.72
2021-10-09 20:57:00,,0820.7,5.00,0.00,29.9,29.0,00.0,39.0,31.7,14.3,0000.0,0009.97,0002.05,0000.70
2021-10-09 20:58:00,,0820.8,5.00,0.00,29.9,29.0,00.0,39.0,31.7,14.3,0000.0,0009.06,0001.96,0000.69
2021-10-09 20:59:00,,0820.9,5.01,0.00,29.9,29.0,00.0,39.0,31.7,14.3,0000.0,0008.24,0001.84,0000.69
